This is the latest recevied weather packets stored in our database for station/object KF5JED-13. If no packets are shown the sender has not sent any weather packets the latest 10 day(s).
| Time | Temp. | Humidity | Pressure | Rain* | Wind** | Luminosity | Snow |
|---|---|---|---|---|---|---|---|
| 1777851339 | 25.56° C | 27% | 1012.2 hPa | 0 mm | - | 263 W/m² | - |
| 1777851035 | 25° C | 28% | 1012.5 hPa | 0 mm | - | 295 W/m² | - |
| 1777850733 | 25° C | 28% | 1012.5 hPa | 0 mm | - | 302 W/m² | - |
| 1777850430 | 25° C | 28% | 1012.3 hPa | 0 mm | - | 316 W/m² | - |
| 1777850128 | 25.56° C | 26% | 1012.5 hPa | 0 mm | - | 330 W/m² | - |
| 1777849824 | 25.56° C | 26% | 1012.5 hPa | 0 mm | - | 364 W/m² | - |
| 1777849521 | 25.56° C | 26% | 1012.2 hPa | 0 mm | - | 378 W/m² | - |
| 1777849219 | 25.56° C | 25% | 1012.5 hPa | 0 mm | - | 381 W/m² | - |
| 1777848915 | 26.11° C | 25% | 1012 hPa | 0 mm | - | 393 W/m² | - |
| 1777848610 | 26.11° C | 24% | 1012.6 hPa | 0 mm | - | 416 W/m² | - |
| 1777848308 | 25.56° C | 25% | 1012.8 hPa | 0 mm | - | 431 W/m² | - |
| 1777848006 | 25.56° C | 25% | 1012.7 hPa | 0 mm | - | 455 W/m² | - |
| 1777847703 | 25.56° C | 25% | 1012.8 hPa | 0 mm | - | 465 W/m² | - |
| 1777847398 | 25.56° C | 25% | 1012.7 hPa | 0 mm | - | 484 W/m² | - |
| 1777847097 | 25.56° C | 24% | 1013 hPa | 0 mm | - | 504 W/m² | - |
| 1777846795 | 25.56° C | 25% | 1012.9 hPa | 0 mm | - | 516 W/m² | - |
| 1777846493 | 25.56° C | 24% | 1013.2 hPa | 0 mm | - | 534 W/m² | - |
| 1777846190 | 26.11° C | 24% | 1013.2 hPa | 0 mm | - | 545 W/m² | - |
| 1777845886 | 25.56° C | 24% | 1013.1 hPa | 0 mm | - | 560 W/m² | - |
| 1777845583 | 25.56° C | 26% | 1013.3 hPa | 0 mm | - | 579 W/m² | - |
| 1777845280 | 25.56° C | 25% | 1013.5 hPa | 0 mm | - | 592 W/m² | - |
| 1777844978 | 25° C | 25% | 1013.6 hPa | 0 mm | - | 609 W/m² | - |
| 1777844675 | 25.56° C | 24% | 1013.6 hPa | 0 mm | - | 631 W/m² | - |
| 1777844372 | 25.56° C | 24% | 1013.9 hPa | 0 mm | - | 654 W/m² | - |
| 1777844071 | 25.56° C | 25% | 1013.8 hPa | 0 mm | - | 685 W/m² | - |
* Rain latest hour (hover to see other rain measurements)
** Current wind speed in m/s (hover to see current wind gust speed)